FW6795 Weather Reports


time (UTC)temp
C
wind
direction
speed
KPH
gust
KPH
rain 1hr
cm
rain 24hr
cm
rain mn
cm
humidity
%
barometer
mb
20260508083056 5 190 9.7 14.5 0.00 0.05 0.00 75 1015.1
20260508082552 5 190 6.4 14.5 0.00 0.05 0.00 75 1015.2
20260508082049 5 190 8.0 14.5 0.00 0.05 0.00 75 1015.0
20260508081604 5 190 8.0 11.3 0.00 0.05 0.00 75 1015.0
20260508081048 5 190 8.0 9.7 0.00 0.05 0.00 76 1015.1
20260508080550 5 190 4.8 6.4 0.00 0.05 0.00 76 1015.0
20260508080057 5 190 1.6 8.0 0.00 0.05 0.00 75 1015.0
20260508075552 5 190 1.6 8.0 0.00 0.05 0.00 75 1015.0
20260508075052 5 190 3.2 11.3 0.00 0.05 0.00 76 1014.9
20260508074555 5 190 4.8 11.3 0.00 0.05 0.00 76 1014.9
20260508074052 5 190 4.8 11.3 0.00 0.05 0.00 76 1015.0
20260508073549 5 190 4.8 11.3 0.00 0.05 0.00 77 1014.8
20260508073106 5 190 6.4 9.7 0.00 0.05 0.00 76 1014.7
20260508072548 5 190 3.2 9.7 0.00 0.05 0.00 76 1014.6
20260508072048 6 190 3.2 8.0 0.00 0.05 0.00 75 1014.6
20260508071606 6 190 3.2 11.3 0.00 0.05 0.00 75 1014.6
20260508071048 6 0 4.8 12.9 0.00 0.05 0.00 75 1014.4
20260508070548 6 190 8.0 19.3 0.00 0.05 0.00 75 1014.5
20260508070058 6 190 11.3 19.3 0.00 0.05 0.00 74 1014.5
20260508065547 6 190 11.3 17.7 0.00 0.05 0.00 74 1014.4
20260508065047 6 190 8.0 17.7 0.00 0.05 0.00 75 1014.3
20260508064614 6 190 6.4 12.9 0.00 0.05 0.00 75 1014.3
20260508064048 6 190 6.4 16.1 0.00 0.05 0.00 75 1014.3
20260508063549 6 190 4.8 16.1 0.00 0.05 0.00 76 1014.2
20260508063108 6 190 6.4 20.9 0.00 0.05 0.00 76 1014.3
20260508062552 7 190 9.7 22.5 0.00 0.05 0.00 76 1014.4
20260508062048 7 190 12.9 22.5 0.00 0.05 0.00 76 1014.2
20260508061606 7 190 11.3 20.9 0.00 0.05 0.00 76 1014.3
20260508061048 7 190 11.3 20.9 0.00 0.05 0.00 77 1014.4
20260508060548 7 190 9.7 20.9 0.00 0.05 0.00 77 1014.5
20260508060105 6 190 9.7 17.7 0.00 0.05 0.00 79 1014.5
20260508055548 7 190 11.3 17.7 0.00 0.05 0.00 79 1014.6
20260508055048 7 190 11.3 22.5 0.00 0.05 0.00 79 1014.7
20260508054554 7 190 9.7 22.5 0.00 0.05 0.00 79 1014.8
20260508054047 7 190 9.7 16.1 0.00 0.05 0.00 79 1014.8
20260508053548 7 190 9.7 16.1 0.00 0.05 0.00 78 1014.7
20260508053059 7 190 9.7 17.7 0.00 0.05 0.00 78 1014.7
20260508052550 7 190 9.7 17.7 0.00 0.05 0.00 77 1014.6
20260508052048 7 190 11.3 17.7 0.00 0.05 0.00 77 1014.5
20260508051606 7 190 9.7 25.7 0.00 0.05 0.00 77 1014.6
20260508051049 7 190 12.9 25.7 0.00 0.05 0.00 76 1014.6
20260508050552 8 190 12.9 25.7 0.00 0.05 0.00 76 1014.5
20260508050053 8 190 11.3 16.1 0.00 0.05 0.00 76 1014.5
20260508045548 8 190 9.7 16.1 0.00 0.05 0.00 76 1014.4
20260508045048 8 190 9.7 16.1 0.00 0.05 0.00 77 1014.3
20260508044551 8 190 8.0 16.1 0.00 0.05 0.00 76 1014.2
20260508044049 8 190 8.0 16.1 0.00 0.05 0.00 76 1014.1
20260508043551 8 190 4.8 14.5 0.00 0.05 0.00 77 1014.1
20260508043052 8 190 9.7 14.5 0.00 0.05 0.00 77 1014.1
20260508042548 8 190 8.0 16.1 0.00 0.05 0.00 77 1014.2
20260508042048 8 190 8.0 16.1 0.00 0.05 0.00 77 1014.2
20260508041551 8 190 8.0 16.1 0.00 0.05 0.00 77 1014.3
20260508041048 8 190 8.0 16.1 0.00 0.05 0.00 77 1014.2
20260508040547 8 190 9.7 17.7 0.00 0.05 0.00 77 1014.1
20260508040056 8 190 9.7 17.7 0.00 0.05 0.00 78 1014.1
20260508035548 8 190 11.3 19.3 0.00 0.20 0.05 78 1014.1
20260508035048 8 190 11.3 19.3 0.00 0.20 0.05 78 1014.0
20260508034553 8 190 11.3 20.9 0.00 0.20 0.05 78 1013.9
20260508034048 8 190 11.3 20.9 0.00 0.20 0.05 78 1013.9
20260508033547 8 190 12.9 20.9 0.00 0.20 0.05 78 1013.9
20260508033057 8 190 12.9 20.9 0.00 0.20 0.05 78 1013.8
20260508032548 8 190 12.9 20.9 0.00 0.20 0.05 78 1013.8
20260508032048 8 190 12.9 19.3 0.00 0.20 0.05 78 1013.9
20260508031557 8 190 12.9 17.7 0.00 0.20 0.05 79 1013.9
20260508031048 8 190 11.3 19.3 0.00 0.20 0.05 79 1013.8
20260508030548 8 190 12.9 20.9 0.00 0.20 0.05 79 1013.8
20260508030059 8 190 11.3 20.9 0.00 0.20 0.05 79 1013.7
20260508025552 8 190 11.3 17.7 0.00 0.46 0.05 79 1013.7
20260508025048 8 190 11.3 17.7 0.00 0.46 0.05 78 1013.6
20260508024617 8 190 9.7 17.7 0.00 0.46 0.05 78 1013.5
20260508024048 8 190 9.7 16.1 0.00 0.46 0.05 78 1013.5
20260508023548 8 190 9.7 16.1 0.00 0.46 0.05 78 1013.5
20260508023053 8 190 11.3 16.1 0.00 0.46 0.05 78 1013.4
20260508022548 8 190 9.7 17.7 0.00 0.46 0.05 78 1013.4
20260508022048 8 190 9.7 17.7 0.00 0.46 0.05 78 1013.4
20260508021558 8 190 12.9 17.7 0.00 0.46 0.05 78 1013.3
20260508021048 8 190 11.3 16.1 0.00 0.46 0.05 78 1013.2
20260508020622 9 190 11.3 19.3 0.00 0.46 0.05 77 1013.2
20260508020054 9 190 9.7 19.3 0.00 0.46 0.05 77 1013.1
20260508015551 9 190 11.3 20.9 0.00 0.46 0.05 77 1013.0
20260508015048 9 190 11.3 20.9 0.00 0.46 0.05 77 1012.8
20260508014554 9 190 12.9 19.3 0.00 0.46 0.05 77 1012.9
20260508014048 9 190 12.9 17.7 0.00 0.46 0.05 76 1012.8
20260508013550 9 190 11.3 19.3 0.00 0.46 0.05 76 1012.7
20260508013054 9 190 11.3 19.3 0.00 0.46 0.05 76 1012.6
20260508012549 9 190 11.3 19.3 0.00 0.46 0.05 76 1012.4
20260508012049 10 190 11.3 20.9 0.00 0.46 0.05 75 1012.3
20260508011602 10 190 11.3 20.9 0.00 0.46 0.05 75 1012.3
20260508011050 10 190 9.7 17.7 0.00 0.46 0.05 75 1012.3
20260508010549 10 190 9.7 19.3 0.00 0.46 0.05 75 1012.1
20260508010058 10 190 9.7 19.3 0.00 0.46 0.05 75 1012.2
20260508005551 10 190 9.7 19.3 0.00 0.46 0.05 74 1012.0
20260508005049 10 190 9.7 17.7 0.00 0.46 0.05 74 1012.1
20260508004601 10 190 6.4 16.1 0.00 0.46 0.05 74 1012.1
20260508004049 10 190 9.7 17.7 0.00 0.46 0.05 73 1012.2
20260508003548 10 190 8.0 17.7 0.00 0.46 0.05 73 1012.1
20260508003100 10 190 6.4 14.5 0.00 0.46 0.05 73 1012.2
20260508002548 10 190 8.0 16.1 0.00 0.46 0.05 72 1012.1
20260508002049 11 190 8.0 19.3 0.00 0.46 0.05 71 1012.2
20260508001556 11 190 8.0 20.9 0.00 0.46 0.05 70 1012.2
20260508001048 11 190 12.9 20.9 0.00 0.46 0.05 70 1012.1
20260508000548 11 190 8.0 20.9 0.00 0.46 0.05 69 1012.1
20260508000054 11 190 8.0 20.9 0.00 0.46 0.05 68 1012.0
20260507235548 11 190 11.3 25.7 0.00 0.46 0.05 67 1012.0
20260507235048 11 190 11.3 27.4 0.00 0.46 0.05 67 1012.0
20260507234553 11 190 12.9 27.4 0.00 0.46 0.05 67 1011.9
20260507234048 12 190 12.9 29.0 0.00 0.46 0.05 66 1011.9
20260507233548 12 190 12.9 29.0 0.00 0.46 0.05 66 1011.9
20260507233100 12 190 14.5 29.0 0.00 0.46 0.05 66 1011.7
20260507232548 12 190 11.3 20.9 0.00 0.46 0.05 68 1011.6
20260507232051 12 190 9.7 25.7 0.00 0.46 0.05 67 1011.6
20260507231559 12 190 11.3 25.7 0.00 0.46 0.05 68 1011.4
20260507231048 12 190 12.9 29.0 0.00 0.46 0.05 68 1011.3
20260507230550 12 190 11.3 29.0 0.00 0.46 0.05 69 1011.2
20260507230107 12 190 14.5 25.7 0.00 0.46 0.05 69 1011.0
20260507225548 12 190 12.9 25.7 0.00 0.46 0.05 70 1011.2
20260507225048 12 190 12.9 40.2 0.00 0.46 0.05 69 1011.2
20260507224556 12 190 14.5 40.2 0.00 0.46 0.05 69 1011.2
20260507224052 12 190 17.7 37.0 0.00 0.46 0.05 69 1011.0
20260507223548 12 190 16.1 37.0 0.00 0.46 0.05 71 1011.0
20260507223052 12 190 12.9 22.5 0.00 0.46 0.05 71 1010.8
20260507222547 12 190 11.3 20.9 0.00 0.46 0.05 72 1010.8
20260507222047 12 190 9.7 24.1 0.00 0.46 0.05 71 1010.7
20260507221551 13 190 11.3 24.1 0.00 0.46 0.05 72 1010.8
20260507221048 13 190 9.7 19.3 0.00 0.46 0.05 72 1010.7
20260507220547 13 190 12.9 24.1 0.00 0.46 0.05 72 1010.7
20260507220054 13 190 9.7 24.1 0.00 0.46 0.05 74 1010.6
20260507215548 13 190 9.7 17.7 0.00 0.46 0.05 74 1010.5
20260507215048 13 190 9.7 20.9 0.00 0.46 0.05 75 1010.6
20260507214551 13 190 11.3 22.5 0.00 0.46 0.05 75 1010.6
20260507214048 12 190 9.7 22.5 0.00 0.46 0.05 75 1010.8
20260507213548 12 190 9.7 22.5 0.00 0.46 0.05 75 1010.8
20260507213048 12 190 9.7 22.5 0.00 0.46 0.05 77 1010.9
20260507212548 12 190 12.9 25.7 0.00 0.46 0.05 77 1011.0
20260507212048 12 190 12.9 25.7 0.00 0.46 0.05 76 1010.8
20260507211551 13 190 14.5 24.1 0.00 0.46 0.05 76 1010.7
20260507211048 13 190 11.3 37.0 0.00 0.46 0.05 76 1010.5
20260507210550 13 190 12.9 37.0 0.00 0.46 0.05 76 1010.4
20260507210105 13 190 12.9 29.0 0.00 0.46 0.05 75 1010.4
20260507205548 13 190 12.9 27.4 0.00 0.46 0.05 75 1010.3
20260507205048 13 190 12.9 27.4 0.00 0.46 0.05 75 1010.3
20260507204549 13 190 9.7 24.1 0.00 0.46 0.05 75 1010.2
20260507204047 13 190 11.3 24.1 0.00 0.46 0.05 75 1010.2
20260507203547 13 190 12.9 24.1 0.00 0.46 0.05 75 1010.3
20260507203114 13 190 8.0 37.0 0.00 0.46 0.05 76 1010.2
20260507202547 13 190 12.9 37.0 0.00 0.46 0.05 75 1010.1
20260507202052 13 190 8.0 22.5 0.00 0.46 0.05 75 1010.1
20260507201551 13 190 1.6 11.3 0.00 0.46 0.05 81 1010.2
20260507201048 12 190 1.6 11.3 0.00 0.46 0.05 80 1010.2
20260507200547 12 190 1.6 12.9 0.00 0.46 0.05 80 1010.2
20260507200053 12 190 6.4 12.9 0.00 0.46 0.05 81 1010.3
20260507195548 11 190 3.2 12.9 0.00 0.46 0.05 80 1010.4
20260507195050 11 190 1.6 14.5 0.00 0.46 0.05 81 1010.8
20260507194601 11 190 6.4 14.5 0.00 0.46 0.05 81 1010.9
20260507194047 11 190 6.4 12.9 0.00 0.46 0.05 81 1011.0
20260507193548 11 190 6.4 12.9 0.00 0.46 0.05 81 1011.0
20260507193058 11 190 4.8 12.9 0.00 0.46 0.05 82 1011.2
20260507192547 11 190 4.8 14.5 0.00 0.46 0.05 83 1011.3
20260507192047 11 190 4.8 17.7 0.00 0.46 0.05 83 1011.2
20260507191550 11 190 6.4 20.9 0.00 0.46 0.05 83 1011.3
20260507191047 11 190 8.0 20.9 0.00 0.46 0.05 83 1011.4
20260507190549 11 190 6.4 20.9 0.00 0.46 0.05 85 1011.4
20260507190057 11 190 6.4 20.9 0.03 0.46 0.05 86 1011.5
20260507185547 11 190 4.8 14.5 0.03 0.46 0.05 89 1011.5
20260507185048 10 190 6.4 20.9 0.03 0.46 0.05 88 1011.6
20260507184551 10 190 8.0 20.9 0.03 0.46 0.05 88 1011.6
20260507184048 10 190 8.0 12.9 0.03 0.46 0.05 89 1011.6
20260507183548 10 190 6.4 14.5 0.03 0.46 0.05 90 1011.4
20260507183056 10 190 4.8 14.5 0.03 0.46 0.05 91 1011.5
20260507182549 10 190 3.2 9.7 0.03 0.46 0.05 92 1011.4
20260507182048 10 190 3.2 8.0 0.03 0.46 0.05 92 1011.4
20260507181553 10 190 1.6 12.9 0.03 0.46 0.05 92 1011.6
20260507181048 9 190 4.8 12.9 0.03 0.46 0.05 92 1011.6
20260507180549 10 190 4.8 14.5 0.00 0.43 0.03 91 1011.7
20260507180052 10 190 6.4 14.5 0.00 0.43 0.03 90 1011.6
20260507175547 10 190 4.8 14.5 0.00 0.43 0.03 89 1011.7
20260507175048 10 190 4.8 14.5 0.00 0.43 0.03 89 1011.7
20260507174551 10 190 8.0 17.7 0.00 0.43 0.03 88 1011.7
20260507174047 10 190 4.8 17.7 0.00 0.43 0.03 88 1011.6
20260507173547 10 190 4.8 14.5 0.00 0.43 0.03 88 1011.7
20260507173124 10 190 4.8 14.5 0.00 0.43 0.03 88 1011.8
20260507172546 10 190 6.4 14.5 0.00 0.43 0.03 88 1011.7
20260507172048 10 190 6.4 12.9 0.00 0.43 0.03 88 1011.6
20260507171558 10 190 6.4 14.5 0.00 0.43 0.03 88 1011.8
20260507171048 10 190 4.8 16.1 0.00 0.43 0.03 88 1011.7
20260507170548 10 190 6.4 16.1 0.00 0.43 0.03 88 1011.7
20260507170050 10 190 4.8 16.1 0.00 0.43 0.03 88 1011.7
20260507165548 10 190 4.8 12.9 0.00 0.43 0.03 88 1011.7
20260507165047 10 190 3.2 12.9 0.00 0.43 0.03 87 1011.7
20260507164551 11 190 3.2 9.7 0.00 0.43 0.03 88 1011.7
20260507164047 11 190 1.6 8.0 0.00 0.43 0.03 88 1011.7
20260507163547 10 190 1.6 11.3 0.00 0.43 0.03 88 1011.8
20260507163047 10 190 3.2 11.3 0.00 0.43 0.03 89 1011.7
20260507162550 10 190 1.6 12.9 0.00 0.43 0.03 89 1011.8
20260507162048 10 190 4.8 12.9 0.00 0.43 0.03 89 1011.9
20260507161551 10 190 6.4 11.3 0.00 0.43 0.03 88 1011.8
20260507161047 11 190 3.2 11.3 0.00 0.43 0.03 89 1011.8
20260507160546 11 190 3.2 9.7 0.00 0.43 0.03 89 1011.8
20260507160059 11 190 4.8 12.9 0.00 0.43 0.03 89 1011.8
20260507155547 11 190 3.2 14.5 0.00 0.43 0.03 90 1011.8
20260507155047 11 190 6.4 14.5 0.00 0.43 0.03 89 1011.8
20260507154551 11 190 4.8 14.5 0.00 0.43 0.03 89 1011.9
20260507154048 11 190 6.4 14.5 0.00 0.43 0.03 90 1011.9
20260507153548 11 190 8.0 17.7 0.00 0.43 0.03 90 1012.0
20260507153057 11 190 9.7 17.7 0.00 0.43 0.03 90 1012.1
20260507152548 11 190 9.7 17.7 0.00 0.43 0.03 89 1012.0
20260507152048 11 190 8.0 17.7 0.00 0.43 0.03 89 1012.0
20260507151555 11 190 4.8 12.9 0.00 0.43 0.03 89 1011.9
20260507151047 11 190 9.7 12.9 0.00 0.43 0.03 90 1011.9
20260507150547 11 190 8.0 16.1 0.00 0.43 0.03 90 1011.9
20260507150054 11 190 4.8 16.1 0.00 0.43 0.03 91 1011.9
20260507145548 11 190 8.0 17.7 0.00 0.46 0.03 91 1011.8
20260507145047 11 190 4.8 17.7 0.00 0.46 0.03 91 1011.8
20260507144603 11 190 8.0 17.7 0.00 0.46 0.03 90 1012.1
20260507144047 11 190 8.0 19.3 0.00 0.46 0.03 90 1011.7
20260507143547 11 190 8.0 19.3 0.00 0.46 0.03 90 1011.7
20260507143101 11 190 6.4 16.1 0.00 0.46 0.03 90 1011.8
20260507142548 11 190 6.4 14.5 0.00 0.46 0.03 91 1011.8
20260507142049 11 190 6.4 14.5 0.00 0.46 0.03 91 1011.9
20260507141600 11 190 6.4 14.5 0.00 0.46 0.03 92 1011.6
20260507141048 11 190 6.4 14.5 0.00 0.46 0.03 93 1011.7
20260507140548 11 190 6.4 16.1 0.00 0.46 0.03 93 1012.0
20260507140106 11 190 8.0 16.1 0.00 0.46 0.03 92 1012.0
20260507135548 11 190 8.0 14.5 0.00 0.53 0.03 92 1012.1
20260507135048 11 190 3.2 9.7 0.00 0.53 0.03 93 1011.8
20260507134556 11 190 4.8 9.7 0.00 0.53 0.03 93 1011.8
20260507134047 11 190 1.6 9.7 0.00 0.53 0.03 93 1011.4
20260507133548 11 190 3.2 9.7 0.00 0.53 0.03 93 1011.9
20260507133137 11 190 3.2 11.3 0.00 0.53 0.03 93 1012.2
20260507132546 11 190 4.8 11.3 0.00 0.53 0.03 93 1012.4
20260507132047 11 190 4.8 11.3 0.00 0.53 0.03 93 1012.3
20260507131552 11 190 4.8 9.7 0.00 0.53 0.03 93 1012.3
20260507131049 11 190 3.2 12.9 0.00 0.53 0.03 94 1012.2
20260507130553 11 190 6.4 12.9 0.00 0.53 0.03 93 1012.4
20260507125549 11 190 4.8 9.7 0.00 0.56 0.03 93 1012.7
20260507125051 11 190 3.2 9.7 0.00 0.56 0.03 94 1012.7
20260507124556 11 190 4.8 9.7 0.00 0.56 0.03 94 1012.5
20260507124049 11 190 4.8 9.7 0.00 0.56 0.03 94 1012.4
20260507123549 11 190 4.8 9.7 0.00 0.56 0.03 94 1012.4
20260507123053 11 190 3.2 14.5 0.00 0.56 0.03 94 1012.5
20260507122549 11 190 3.2 14.5 0.00 0.56 0.03 94 1012.4
20260507122048 11 190 8.0 14.5 0.00 0.56 0.03 94 1012.8
20260507121550 11 190 6.4 11.3 0.00 0.56 0.03 94 1012.6
20260507121049 11 190 4.8 11.3 0.00 0.56 0.03 95 1012.5
20260507120548 11 190 3.2 8.0 0.00 0.56 0.03 95 1012.3
20260507120052 11 190 3.2 11.3 0.00 0.56 0.03 95 1012.1
20260507115550 11 190 3.2 11.3 0.00 0.56 0.03 95 1012.0
20260507115049 11 190 4.8 9.7 0.00 0.56 0.03 95 1012.2
20260507114609 11 190 1.6 9.7 0.00 0.56 0.03 95 1012.2
20260507114049 11 190 1.6 11.3 0.00 0.56 0.03 95 1012.1
20260507113549 11 190 4.8 11.3 0.00 0.56 0.03 95 1012.1
20260507113051 11 190 3.2 9.7 0.00 0.56 0.03 95 1012.2
20260507112549 11 190 4.8 9.7 0.00 0.56 0.03 95 1012.0
20260507112052 11 190 3.2 8.0 0.00 0.56 0.03 95 1012.1
20260507111551 11 190 3.2 8.0 0.00 0.56 0.03 95 1012.1
20260507111049 11 190 3.2 8.0 0.00 0.56 0.03 95 1011.9
20260507110553 11 190 1.6 4.8 0.00 0.56 0.03 95 1011.8
20260507110050 11 190 1.6 6.4 0.00 0.56 0.03 95 1011.6
20260507105548 11 190 1.6 9.7 0.00 0.56 0.03 95 1011.6
20260507105049 11 190 3.2 9.7 0.00 0.56 0.03 95 1011.5
20260507104553 11 190 4.8 8.0 0.00 0.56 0.03 95 1011.7
20260507104049 11 190 3.2 8.0 0.00 0.56 0.03 95 1011.7
20260507103549 11 190 1.6 6.4 0.00 0.56 0.03 95 1011.6
20260507103055 11 190 1.6 6.4 0.00 0.56 0.03 95 1011.6
20260507102548 11 190 3.2 6.4 0.00 0.56 0.03 95 1011.8
20260507102050 11 190 1.6 6.4 0.00 0.56 0.03 95 1011.8
20260507101550 11 0 1.6 9.7 0.00 0.56 0.03 95 1011.8
20260507101052 11 190 3.2 9.7 0.00 0.56 0.03 95 1011.9
20260507100552 12 190 1.6 6.4 0.00 0.56 0.03 95 1012.2
20260507100054 12 0 0.0 6.4 0.00 0.56 0.03 95 1011.7
20260507095552 12 190 1.6 4.8 0.03 0.56 0.03 95 1011.4
20260507095049 12 0 0.0 3.2 0.03 0.56 0.03 95 1011.4
20260507094559 12 190 0.0 3.2 0.03 0.56 0.03 95 1011.3
20260507094049 12 190 0.0 3.2 0.03 0.56 0.03 95 1011.4
20260507093549 12 0 0.0 3.2 0.03 0.56 0.03 95 1011.3
20260507093052 12 190 0.0 3.2 0.03 0.56 0.03 95 1011.0
20260507092549 12 190 0.0 3.2 0.03 0.56 0.03 95 1010.8
20260507092048 12 0 0.0 0.0 0.03 0.56 0.03 95 1011.0
20260507091554 12 0 0.0 0.0 0.03 0.56 0.03 95 1011.4
20260507091049 12 0 0.0 1.6 0.03 0.56 0.03 95 1011.3
20260507090551 12 0 0.0 1.6 0.03 0.56 0.03 95 1011.2
20260507090054 12 0 0.0 1.6 0.03 0.56 0.03 95 1011.2
20260507085548 12 0 0.0 1.6 0.00 0.53 0.00 95 1011.0
20260507085049 12 0 0.0 1.6 0.00 0.53 0.00 95 1011.1
20260507084549 12 0 0.0 3.2 0.00 0.53 0.00 95 1011.2
20260507084049 12 190 0.0 3.2 0.00 0.53 0.00 95 1011.4
20260507083548 13 190 0.0 3.2 0.00 0.53 0.00 95 1011.4